Regional Weather Roundup
Issued by NWS

Home | Current Version | Previous Version | Text Only | Print | Product List | Glossary Off
Versions: 1 2 3 4 5 6 7 8 9 10 11 12 13 14 15 16 17 18 19 20 21 22 23 24 25 26 27 28 29 30 31 32 33 34 35 36 37 38 39 40 41 42 43 44 45 46 47 48 49 50

000
ASUS44 KMEG 280610
RWRTN
TENNESSEE HOURLY STATE WEATHER ROUNDUP
NATIONAL WEATHER SERVICE MEMPHIS TN
100 AM CDT TUE MAR 28 2017

TNZ002-004-019-021-049-052-054-088>092-280700-
WEST TENNESSEE

CITY           SKY/WX    TMP DP  RH WIND       PRES   REMARKS
MEMPHIS INTL   PTCLDY    63  58  83 E5        29.90S
NWS MEMPHIS      N/A     62 N/A N/A MISG        N/A
JACKSON        MOCLDY    56  56 100 SW3       29.90R
DYERSBURG      FOG       55  55 100 CALM      29.91R VSB 1/4
SOMERVILLE     CLOUDY    59  57  94 CALM      29.89S
BOLIVAR        CLOUDY    57  55  94 CALM      29.90R FOG
PARIS          CLOUDY    45  45 100 CALM      29.90R VSB 1/4
HUNTINGDON     FOG       52  52 100 CALM      29.89R VSB 3/4
SAVANNAH       FOG       61  59  94 N3        29.89R VSB 0
$$

TNZ008-025-027-028-033-062-065-066-280700-
NORTH MIDDLE TENNESSEE

CITY           SKY/WX    TMP DP  RH WIND       PRES   REMARKS
NASHVILLE      PTCLDY    59  57  93 W5        29.88R
PORTLAND       CLOUDY    57  55  94 CALM      29.88S
CLARKSVILLE    FOG       51  50  96 CALM      29.88R VSB 1/4
SMYRNA         RAIN      58  57  97 CALM        N/A
COOKEVILLE     CLOUDY    57  54  88 S5        29.87S
GALLATIN       CLOUDY    57  57 100 CALM      29.90S
CROSSVILLE     CLOUDY    54  52  93 S3        29.91F
$$

TNZ061-075-076-078-094-096-097-280700-
SOUTH MIDDLE TENNESSEE

CITY           SKY/WX    TMP DP  RH WIND       PRES   REMARKS
FAYETTEVILLE   MOCLDY    59  57  94 S5        29.90S
TULLAHOMA      CLEAR     55  55 100 S3          N/A
WINCHESTER     MOCLDY    57  55  94 SE6       29.91S
MCMINNVILLE    PTCLDY    57  57 100 CALM      29.89S
COLUMBIA       PTCLDY   N/A N/A N/A CALM      29.87R
SHELBYVILLE    PTCLDY    59  57  94 SE3       29.89F
$$

TNZ017-018-042-046-047-280700-
NORTHEAST TENNESSEE

CITY           SKY/WX    TMP DP  RH WIND       PRES   REMARKS
TRI CITIES     CLOUDY    58  56  93 CALM      29.97R
ELIZABETHTON   CLOUDY    57  57 100 CALM      29.95S
$$

TNZ012-013-036-069-073-074-280700-
CENTRAL EAST TENNESSEE

CITY           SKY/WX    TMP DP  RH WIND       PRES   REMARKS
KNOXVILLE      LGT RAIN  57  55  93 SE14G23   29.91F
OAK RIDGE      CLOUDY    58  55  90 CALM      29.93R
DOWNTOWN KNOXV MOCLDY    59  57  94 S3        29.91F
GATLINBURG     CLOUDY    57  57 100 SW3       29.98S
MORRISTOWN     CLOUDY    57  57 100 SW7       29.95F FOG
JACKSBORO      CLOUDY    57  55  94 CALM      29.94S
$$

TNZ083-085-099-280700-
SOUTHEAST TENNESSEE

CITY           SKY/WX    TMP DP  RH WIND       PRES   REMARKS
CHATTANOOGA    CLOUDY    59  59 100 W3        29.94F
$$

SKY/WX REPORTED AS FAIR MEANS FEW OR NO CLOUDS BELOW
12 THOUSAND FEET.





USA.gov is the U.S. government's official web portal to all federal, state and local government web resources and services.